• Join FlightAware (Why Join?)
  • Login
  • US Flag GB Flag 
18:47 EDT


 

Airport Tracker/Info


-or-


 

Live Flight TrackerFlight Track Log ✈ N112CS ✈ 21-Oct-2013 ✈ KMTH - KLIT

Flight Track Log - Related Links

Times and Time Zones

All times are in EDT time to prevent confusion due to time zone crossing. See the N112CS flight status page for this flight to view local times or setup timezone preferences in your user account.

Time Position Orientation Groundspeed Altitude Reporting Facility
EDT Latitude Longitude Course Direction KTS MPH feet Rate Location/Type
19:01 24.8289 -81.0050 344° North 270 311 3,600  Level Miami Center
19:02 24.8833 -81.0044 North 241 277 5,200 1,500 Climbing Miami Center
19:03 24.9392 -81.0203 346° North 211 243 6,600 1,500 Climbing Miami Center
19:04 24.9911 -81.0381 343° North 200 230 8,300 1,500 Climbing Miami Center
19:05 25.0447 -81.0558 343° North 200 230 9,700 1,200 Climbing Miami Center
19:06 24.9907 -81.3095 344° North  Level Estimated
19:06 25.1008 -81.0714 346° North 200 230 10,800  Level Miami Center
19:07 25.1586 -81.0919 342° North 205 236 12,200 1,380 Climbing Miami Center
19:08 25.2144 -81.1122 342° North 210 242 13,600 1,200 Climbing Miami Center
19:09 25.2661 -81.1322 341° North 204 235 14,700 960 Climbing Miami Center
19:10 25.3219 -81.1503 344° North 204 235 15,600 960 Climbing Miami Center
19:11 25.3778 -81.1661 346° North 204 235 16,700 960 Climbing Miami Center
19:12 25.4317 -81.1819 345° North 204 235 17,600 780 Climbing Miami Center
19:13 25.4875 -81.2000 344° North 204 235 18,300 720 Climbing Miami Center
19:14 25.5456 -81.2181 344° North 204 235 19,100 780 Climbing Miami Center
19:15 25.5994 -81.2317 347° North 204 235 19,900 720 Climbing Miami Center
19:16 25.6531 -81.2497 343° North 204 235 20,600 600 Climbing Miami Center
19:17 25.6981 -81.2883 322° Northwest 199 229 21,100 540 Climbing Miami Center
19:18 25.7386 -81.3289 318° Northwest 194 223 21,700 420 Climbing Miami Center
19:19 25.7789 -81.3742 315° West 194 223 22,000 120 Climbing Miami Center
19:20 25.8192 -81.4219 313° West 204 235 22,000  Level Miami Center
19:21 25.8678 -81.4722 317° Northwest 222 255 22,000  Level Miami Center
19:22 25.9161 -81.5247 316° Northwest 233 268 22,000  Level Miami Center
19:23 25.9686 -81.5800 317° Northwest 245 282 22,000  Level Miami Center
19:24 26.0211 -81.6328 318° Northwest 245 282 22,000  Level Miami Center
19:25 26.0717 -81.6881 316° Northwest 250 288 22,000  Level Miami Center
19:26 26.1242 -81.7433 317° Northwest 255 293 22,000  Level Miami Center
19:27 26.1764 -81.8033 314° West 260 299 22,000  Level Miami Center
19:28 26.2286 -81.8589 316° Northwest 265 305 22,000  Level Miami Center
19:29 26.2711 -81.9047 316° Northwest 265 305 22,000  Level Miami Center
19:30 26.3333 -81.9722 316° Northwest 265 305 22,000  Level Miami Center
19:31 26.3878 -82.0300 316° Northwest 265 305 22,000  Level Miami Center
19:32 26.4439 -82.0928 315° West 265 305 22,000  Level Miami Center
19:33 26.4964 -82.1461 318° Northwest 265 305 22,000  Level Miami Center
19:34 26.5483 -82.2042 315° West 265 305 22,000  Level Miami Center
19:35 26.6025 -82.2625 316° Northwest 265 305 22,000  Level Miami Center
19:36 26.6567 -82.3206 316° Northwest 265 305 22,000  Level Miami Center
19:37 26.7089 -82.3789 315° West 265 305 22,000  Level Miami Center
19:38 26.7611 -82.4347 316° Northwest 265 305 22,000  Level Miami Center
19:39 26.8131 -82.4931 315° West 265 305 22,000  Level Miami Center
19:40 26.8669 -82.5514 316° Northwest 265 305 22,000  Level Miami Center
19:41 26.9092 -82.5978 316° Northwest 265 305 22,000  Level Miami Center
19:42 26.9669 -82.6611 316° Northwest 265 305 22,000  Level Miami Center
19:43 27.0211 -82.7197 316° Northwest 265 305 22,000  Level Miami Center
19:44 27.0708 -82.7758 315° West 265 305 22,000  Level Miami Center
19:45 27.1269 -82.8347 317° Northwest 265 305 22,000  Level Miami Center
19:46 27.1789 -82.8933 315° West 265 305 22,000  Level Miami Center
19:47 27.2328 -82.9500 317° Northwest 265 305 22,000  Level Miami Center
19:48 27.2844 -83.0086 315° West 265 305 22,000  Level Miami Center
19:49 27.3383 -83.0653 317° Northwest 265 305 22,000  Level Miami Center
19:50 27.3881 -83.1242 314° West 265 305 22,000  Level Miami Center
19:51 27.4419 -83.1808 317° Northwest 265 305 22,000  Level Miami Center
19:52 27.4936 -83.2397 315° West 265 305 22,000  Level Miami Center
19:54 27.5858 -83.3444 315° West 259 298 22,000  Level Jacksonville Center
19:55 27.6356 -83.4031 314° West 259 298 22,000  Level Jacksonville Center
19:56 27.6917 -83.4597 318° Northwest 253 291 22,000  Level Jacksonville Center
19:57 27.7417 -83.5186 314° West 253 291 22,000  Level Jacksonville Center
19:58 27.7956 -83.5775 316° Northwest 253 291 22,000  Level Jacksonville Center
19:59 27.8453 -83.6342 315° West 253 291 22,000  Level Jacksonville Center
20:00 27.8969 -83.6933 315° West 253 291 22,000  Level Jacksonville Center
20:01 27.9508 -83.7525 316° Northwest 253 291 22,000  Level Jacksonville Center
20:02 27.9986 -83.8092 314° West 253 291 22,000  Level Jacksonville Center
20:03 28.0503 -83.8661 316° Northwest 258 297 22,000  Level Jacksonville Center
20:04 28.0978 -83.9300 310° West 258 297 22,000  Level Jacksonville Center
20:05 28.1494 -83.9894 315° West 258 297 22,000  Level Jacksonville Center
20:06 28.1947 -84.0511 310° West 263 303 22,000  Level Jacksonville Center
20:07 28.2422 -84.1131 311° West 263 303 22,000  Level Jacksonville Center
20:08 28.2897 -84.1703 313° West 263 303 22,000  Level Jacksonville Center
20:09 28.3433 -84.2322 315° West 263 303 22,000  Level Jacksonville Center
20:10 28.3906 -84.2917 312° West 263 303 22,000  Level Jacksonville Center
20:11 28.4381 -84.3561 310° West 263 303 22,000  Level Jacksonville Center
20:12 28.4853 -84.4158 312° West 263 303 22,000  Level Jacksonville Center
20:13 28.5306 -84.4711 313° West 269 310 22,000  Level Jacksonville Center
20:14 28.5778 -84.5331 311° West 269 310 22,000  Level Jacksonville Center
20:15 28.6228 -84.5931 311° West 264 304 22,000  Level Jacksonville Center
20:16 28.6722 -84.6506 314° West 264 304 22,000  Level Jacksonville Center
20:17 28.7172 -84.7131 309° West 264 304 22,000  Level Jacksonville Center
20:18 28.7600 -84.7753 308° West 264 304 22,000  Level Jacksonville Center
20:19 28.8094 -84.8308 315° West 256 295 22,000  Level Jacksonville Center
20:20 28.8564 -84.8886 313° West 251 289 22,000  Level Jacksonville Center
20:21 28.9014 -84.9511 309° West 251 289 22,000  Level Jacksonville Center
20:22 28.9506 -85.0067 315° West 251 289 22,000  Level Jacksonville Center
20:23 28.9975 -85.0694 311° West 251 289 22,000  Level Jacksonville Center
20:24 29.0425 -85.1275 312° West 251 289 22,000  Level Jacksonville Center
20:25 29.0894 -85.1881 312° West 251 289 22,000  Level Jacksonville Center
20:26 29.1383 -85.2461 314° West 251 289 22,000  Level Jacksonville Center
20:27 29.1833 -85.3067 310° West 246 283 22,000  Level Jacksonville Center
20:28 29.2281 -85.3672 310° West 246 283 22,000  Level Jacksonville Center
20:29 29.2728 -85.4278 310° West 246 283 22,000  Level Jacksonville Center
20:30 29.3194 -85.4861 313° West 252 290 22,000  Level Jacksonville Center
20:31 29.3642 -85.5469 310° West 252 290 22,000  Level Jacksonville Center
20:32 29.4111 -85.6056 313° West 252 290 22,000  Level Jacksonville Center
20:33 29.4556 -85.6664 310° West 252 290 22,000  Level Jacksonville Center
20:34 29.5022 -85.7250 312° West 252 290 22,000  Level Jacksonville Center
20:35 29.5469 -85.7811 313° West 247 284 22,000  Level Jacksonville Center
20:36 29.5936 -85.8397 312° West 247 284 22,000  Level Jacksonville Center
20:37 29.6381 -85.9008 310° West 247 284 22,000  Level Jacksonville Center
20:38 29.6828 -85.9619 310° West 247 284 22,000  Level Jacksonville Center
20:39 29.7272 -86.0208 311° West 247 284 22,000  Level Jacksonville Center
20:40 29.7717 -86.0797 311° West 247 284 22,000  Level Jacksonville Center
20:41 29.8181 -86.1386 312° West 242 278 22,000  Level Jacksonville Center
20:42 29.8625 -86.1975 311° West 242 278 22,000  Level Jacksonville Center
20:43 29.9131 -86.2614 312° West 242 278 22,000  Level Jacksonville Center
20:44 29.9553 -86.3206 309° West 242 278 22,000  Level Jacksonville Center
20:45 29.9997 -86.3797 311° West 242 278 22,000  Level Jacksonville Center
20:46 30.0419 -86.4364 311° West 237 273 22,000  Level Jacksonville Center
20:47 30.0861 -86.4956 311° West 237 273 22,000  Level Jacksonville Center
20:48 30.1403 -86.5744 308° West 240 276 22,000  Level Jacksonville Center
20:49 30.1644 -86.6067 311° West 241 277 22,000  Level Jacksonville Center
20:50 30.2067 -86.6636 311° West 240 276 22,000  Level Jacksonville Center
20:51 30.2528 -86.7231 312° West 239 275 22,000  Level Jacksonville Center
20:52 30.2969 -86.7825 311° West 238 274 22,000  Level Jacksonville Center
20:53 30.3411 -86.8419 311° West 236 272 22,000  Level Jacksonville Center
20:54 30.3831 -86.8967 312° West 236 272 22,000  Level Jacksonville Center
20:54 30.4253 -86.9467 314° West 232 267 22,000 -420 Level Jacksonville Center
20:56 30.4758 -87.0019 317° Northwest 260 299 21,200 -1,020 Descending Jacksonville Center
20:57 30.5361 -87.0694 316° Northwest 276 318 19,900 -1,020 Descending Jacksonville Center
20:58 30.5906 -87.1322 315° West 284 327 19,100 -720 Descending Jacksonville Center
20:59 30.6389 -87.1828 318° Northwest 318 366 18,600 -480 Descending Jacksonville Center
21:00 30.6911 -87.2431 315° West 304 350 18,300 -300 Descending Jacksonville Center
21:01 30.7414 -87.3033 314° West 275 316 18,000 -420 Descending Jacksonville Center
21:02 30.7914 -87.3636 314° West 261 300 17,500 -720 Descending Jacksonville Center
21:03 30.9000 -87.4856 316° Northwest 286 329 16,100 -540 Descending Houston Center
21:04 30.9514 -87.5417 317° Northwest 261 300 16,000 -60 Descending Houston Center
21:05 31.0000 -87.6008 314° West 255 293 16,000  Level Houston Center
21:06 31.0494 -87.6589 315° West 253 291 16,000  Level Houston Center
21:07 31.0978 -87.7178 314° West 253 291 16,000  Level Houston Center
21:08 31.1481 -87.7767 315° West 256 295 16,000  Level Houston Center
21:10 31.1994 -87.8364 315° West 261 300 16,000  Level Houston Center
21:11 31.2611 -87.9097 315° West 265 305 16,000  Level Houston Center
21:13 31.3892 -88.0569 316° Northwest 272 313 16,000  Level Memphis Center
21:14 31.4406 -88.1200 314° West 271 312 16,000  Level Memphis Center
21:15 31.4944 -88.1814 316° Northwest 272 313 16,000  Level Memphis Center
21:16 31.5586 -88.2567 315° West 273 314 16,000  Level Memphis Center
21:17 31.6108 -88.3194 314° West 271 312 16,000  Level Memphis Center
21:18 31.6633 -88.3814 315° West 270 311 16,000  Level Memphis Center
21:19 31.7019 -88.4308 313° West 262 302 16,000 -300 Level Houston Center
21:20 31.7542 -88.4958 313° West 270 311 15,500 -480 Descending Houston Center
21:21 31.8072 -88.5647 312° West 280 322 15,100 -360 Descending Houston Center
21:22 31.8594 -88.6275 314° West 275 316 14,800 -540 Descending Houston Center
21:23 31.9136 -88.6883 316° Northwest 271 312 14,000 -420 Descending Houston Center
21:24 31.9669 -88.7481 316° Northwest 267 307 14,000  Level Houston Center
21:25 32.0261 -88.8164 316° Northwest 253 291 14,000  Level Houston Center
21:26 32.0850 -88.8842 316° Northwest 246 283 14,000  Level Memphis Center
21:27 32.1306 -88.9442 312° West 247 284 14,000  Level Memphis Center
21:28 32.1792 -89.0011 315° West 248 285 14,000  Level Memphis Center
21:29 32.2269 -89.0592 314° West 249 287 14,000  Level Memphis Center
21:30 32.2758 -89.1217 313° West 254 292 14,000  Level Memphis Center
21:31 32.3281 -89.1833 315° West 260 299 14,000  Level Memphis Center
21:32 32.3897 -89.2586 314° West 265 305 14,000  Level Memphis Center
21:33 32.4419 -89.3219 314° West 268 308 14,000  Level Memphis Center
21:35 32.4961 -89.3847 316° Northwest 272 313 14,000  Level Memphis Center
21:36 32.5481 -89.4497 313° West 272 313 14,000  Level Memphis Center
21:37 32.6008 -89.5133 315° West 272 313 14,000  Level Memphis Center
21:38 32.6536 -89.5789 314° West 275 316 14,000  Level Memphis Center
21:39 32.7072 -89.6436 315° West 276 318 14,000  Level Memphis Center
21:40 32.7611 -89.7097 314° West 277 319 14,000  Level Memphis Center
21:41 32.8242 -89.7892 313° West 276 318 14,000  Level Memphis Center
21:42 32.8775 -89.8550 314° West 275 316 14,000  Level Memphis Center
21:43 32.9319 -89.9203 315° West 270 311 14,000  Level Memphis Center
21:44 32.9844 -89.9886 312° West 274 315 14,000  Level Memphis Center
21:45 33.0369 -90.0536 314° West 274 315 14,000  Level Memphis Center
21:46 33.0886 -90.1178 314° West 270 311 14,000  Level Memphis Center
21:47 33.1400 -90.1817 314° West 269 310 14,000  Level Memphis Center
21:48 33.1922 -90.2475 313° West 271 312 14,000  Level Memphis Center
21:49 33.2442 -90.3111 314° West 271 312 14,000  Level Memphis Center
21:50 33.2953 -90.3739 314° West 267 307 14,000  Level Memphis Center
21:51 33.3467 -90.4397 313° West 270 311 14,000  Level Memphis Center
21:52 33.4083 -90.5153 314° West 268 308 14,000  Level Memphis Center
21:53 33.4583 -90.5786 313° West 265 305 14,000  Level Memphis Center
21:54 33.5097 -90.6442 313° West 269 310 14,000  Level Memphis Center
21:55 33.5608 -90.7089 313° West 269 310 14,000  Level Memphis Center
21:56 33.6122 -90.7736 314° West 270 311 14,000  Level Memphis Center
21:57 33.6633 -90.8392 313° West 271 312 14,000  Level Memphis Center
21:58 33.7133 -90.9028 313° West 266 306 14,000  Level Memphis Center
21:59 33.7636 -90.9692 312° West 269 310 14,000  Level Memphis Center
22:00 33.8239 -91.0464 313° West 267 307 14,000  Level Memphis Center
22:01 33.8706 -91.1089 312° West 264 304 14,000 -300 Level Memphis Center
22:02 33.9217 -91.1742 313° West 264 304 13,400 -720 Descending Memphis Center
22:03 33.9739 -91.2456 311° West 276 318 12,600 -840 Descending Memphis Center
22:04 34.0311 -91.3161 314° West 287 330 11,800 -840 Descending Memphis Center
22:04 34.0539 -91.3475 311° West 299 344 11,500 -600 Descending Memphis Center
22:05 34.0886 -91.3889 315° West 293 337 11,200 -600 Descending Memphis Center
22:06 34.1408 -91.4542 314° West 294 338 10,600 -720 Descending Memphis Center
22:06 34.1497 -91.4617 325° Northwest 300 345 10,500 -720 Descending Memphis Center
22:07 34.1722 -91.4947 309° West 293 337 10,200 -540 Descending Memphis Center
22:07 34.2050 -91.5344 315° West 294 338 10,000 -720 Descending Memphis Center
22:08 34.2481 -91.5925 312° West 290 334 9,300 -900 Descending Memphis Center
22:08 34.2597 -91.6081 312° West 291 335 9,100 -840 Descending Memphis Center
22:09 34.2994 -91.6644 310° West 296 341 8,500 -900 Descending Memphis Center
22:09 34.3158 -91.6839 316° Northwest 295 339 8,200 -900 Descending Memphis Center
22:10 34.3489 -91.7314 310° West 298 343 7,700 -1,020 Descending Memphis Center
22:10 34.3778 -91.7633 318° Northwest 296 341 7,200 -1,140 Descending Memphis Center
22:11 34.3944 -91.8117 293° West 276 318 6,600 -1,020 Descending Memphis Center
22:11 34.3964 -91.8486 274° West 268 308 6,200 -1,020 Descending Memphis Center
22:12 34.3964 -91.9022 270° West 246 283 5,600 -1,200 Descending Memphis Center
22:12 34.3969 -91.9339 271° West 260 299 5,000 -1,380 Descending Memphis Center
22:13 34.3961 -91.9856 269° West 254 292 4,200 -1,320 Descending Memphis Center
22:13 34.4058 -92.0192 289° West 258 297 3,700 -1,020 Descending Memphis Center
22:14 34.4242 -92.0542 302° West 257 296 3,300 -420 Descending Memphis Center
22:14 34.4472 -92.0878 310° West 253 291 3,300  Level Memphis Center
22:15 34.4647 -92.1197 304° West 233 268 3,300  Level Memphis Center
22:15 34.4819 -92.1494 305° West 237 273 3,300 -120 Level Memphis Center
22:16 34.4986 -92.1756 308° West 206 237 3,200 -600 Descending Memphis Center
22:16 34.5167 -92.2056 306° West 221 254 2,700 -780 Descending Memphis Center
22:17 34.5322 -92.2289 309° West 213 245 2,500 -720 Descending Memphis Center
22:17 34.5642 -92.2386 346° North 220 253 2,000 -480 Descending Memphis Center
22:18 34.5953 -92.2403 357° North 193 222 2,000  Level Memphis Center
22:18 34.6167 -92.2386 North 202 232 2,000  Level Memphis Center
22:19 34.6372 -92.2425 351° North 146 168 2,000 -240 Level Memphis Center
22:19 34.6561 -92.2411 North 173 199 1,800 -720 Descending Memphis Center
22:20 34.6686 -92.2406 North 116 133 1,400 -600 Descending Memphis Center
22:20 34.6919 -92.2392 North 149 171 1,200 -660 Descending Memphis Center
22:21 34.7039 -92.2383 North 111 128 700 -1,200 Descending Memphis Center
22:23 34.7167 -92.2167 39° Northeast  Level FlightAware Approximate